Weather History for KRUE - December, 2013

Change the Weather History Date:

Wednesday, December 18, 2013

  Actual Average (KHOT) Record (KHOT)
Temperature  
Mean Temperature 46 °F -  
Max Temperature 64 °F 54 °F 72 °F (1976)
Min Temperature 28 °F 30 °F 5 °F (1989)
Degree Days  
Heating Degree Days 19    
Moisture  
Dew Point 33 °F    
Average Humidity 68    
Maximum Humidity 92    
Minimum Humidity 36    
Precipitation  
Precipitation 0.00 in - - ()
Sea Level Pressure  
Sea Level Pressure 30.18 in    
Wind  
Wind Speed 1 mph (SSE)    
Max Wind Speed 7 mph    
Max Gust Speed -    
Visibility 10 miles    
Events      
Averages and records for this station are not official NWS values.
T = Trace of Precipitation, MM = Missing Value Source: NWS Daily Summary

Daily Weather History Graph

Daily Weather History Graph

Search for Another Location

Airport or City:

Trip Planner

Search our weather history database for the weather conditions in past years. The results will help you decide how hot, cold, wet, or windy it might be!

Date:

Astronomy

Dec. 18, 2013 Rise Set
Actual Time 7:15 AM CST 5:02 PM CST
Civil Twilight 6:47 AM CST 5:30 PM CST
Nautical Twilight 6:15 AM CST 6:02 PM CST
Astronomical Twilight 5:44 AM CST 6:33 PM CST
Moon 6:32 PM CST (12/18) 7:58 AM CST (12/18)
Length of Visible Light 10h 43m
Length of Day
9h 47m
Full, 98% of the Moon is Illuminated
Dec 18
Full
Dec 25
Last Quarter
Jan 1
New
Jan 7
First Quarter
Jan 15
Full

Hourly Weather History & Observations

Time (CST) Temp. Windchill Dew Point Humidity Pressure Visibility Wind Dir Wind Speed Gust Speed Precip Events Conditions
12:53 AM 30.9 °F - 28.9 °F 92% 30.28 in 10.0 mi Calm Calm - N/A   Clear
1:53 AM 30.0 °F - 28.0 °F 92% 30.29 in 10.0 mi Calm Calm - N/A   Clear
2:53 AM 28.9 °F - 27.0 °F 92% 30.29 in 10.0 mi Calm Calm - N/A   Clear
3:53 AM 28.9 °F - 27.0 °F 92% 30.29 in 10.0 mi Calm Calm - N/A   Clear
4:53 AM 28.0 °F - 26.1 °F 92% 30.29 in 10.0 mi Calm Calm - N/A   Clear
5:53 AM 28.0 °F - 26.1 °F 92% 30.29 in 10.0 mi Calm Calm - N/A   Clear
6:53 AM 28.0 °F - 25.0 °F 88% 30.29 in 10.0 mi Calm Calm - N/A   Clear
7:53 AM 28.0 °F - 26.1 °F 92% 30.30 in 10.0 mi Calm Calm - N/A   Clear
8:53 AM 37.0 °F - 33.1 °F 86% 30.30 in 10.0 mi Calm Calm - N/A   Clear
9:53 AM 46.9 °F - 30.9 °F 54% 30.30 in 10.0 mi Variable 3.5 mph - N/A   Clear
10:53 AM 51.1 °F - 30.0 °F 44% 30.28 in 10.0 mi Variable 4.6 mph - N/A   Clear
11:53 AM 55.0 °F - 30.9 °F 40% 30.23 in 10.0 mi Variable 3.5 mph - N/A   Clear
12:53 PM 57.9 °F - 33.1 °F 39% 30.18 in 10.0 mi SE 4.6 mph - N/A   Clear
1:53 PM 61.0 °F - 35.1 °F 38% 30.13 in 10.0 mi Calm Calm - N/A   Clear
2:53 PM 64.9 °F - 37.0 °F 36% 30.09 in 10.0 mi South 5.8 mph - N/A   Clear
3:53 PM 64.0 °F - 37.0 °F 37% 30.08 in 10.0 mi SSW 6.9 mph - N/A   Clear
4:53 PM 63.0 °F - 37.9 °F 40% 30.07 in 10.0 mi South 4.6 mph - N/A   Clear
5:53 PM 57.9 °F - 39.0 °F 49% 30.06 in 10.0 mi Variable 4.6 mph - N/A   Clear
6:53 PM 55.9 °F - 39.0 °F 53% 30.06 in 10.0 mi SSE 3.5 mph - N/A   Clear
7:53 PM 48.0 °F - 39.0 °F 71% 30.06 in 10.0 mi Calm Calm - N/A   Clear
8:53 PM 45.0 °F 43.5 °F 37.9 °F 76% 30.05 in 10.0 mi East 3.5 mph - N/A   Clear
9:53 PM 46.0 °F - 39.0 °F 76% 30.04 in 10.0 mi Calm Calm - N/A   Clear
10:53 PM 45.0 °F - 39.0 °F 80% 30.04 in 10.0 mi Calm Calm - N/A   Clear
11:53 PM 43.0 °F - 39.0 °F 86% 30.04 in 10.0 mi Calm Calm - N/A   Clear